Date String (YYYY-MM-DD hh:mm:ss) UTC,Instrument flags,Ambient pressure (hPa),Sample flow (lpm),Bypass flow (lpm),Sample temperature (°C),Ambient temperature (°C),ASC tube jacket temperature (°C),LED temperature (°C),Box temperature (°C),Sample RH (%),Span deviation,Mass concentration (μg/m³),Mass concentration (μg/m³),Mass concentration (μg/m³)
DateTimeUTC,F1_M11,P_M11,Q1_M11,Q2_M11,T1_M11,T2_M11,T3_M11,T4_M11,T5_M11,U1_M11,ZSPAN_M11,X2_M11,X0_M11,X1_M11
2022-05-16 21:00:00,,0822.4,5.00,0.00,29.2,26.0,00.0,38.1,30.9,15.5,0000.0,0004.85,0022.97,0003.02
2022-05-16 21:01:00,,0822.4,5.01,0.00,29.1,24.8,00.0,38.1,30.6,15.8,0000.0,0004.81,0022.60,0003.03
2022-05-16 21:02:00,,0822.4,5.01,0.00,29.0,25.2,00.0,38.0,30.5,15.3,0000.0,0004.79,0022.72,0003.03
2022-05-16 21:03:00,,0822.3,4.99,0.00,29.0,25.7,00.0,38.0,30.5,16.0,0000.0,0004.79,0022.76,0003.02
2022-05-16 21:04:00,,0822.3,5.00,0.00,29.0,26.1,00.0,38.0,30.6,15.4,0000.0,0004.74,0021.59,0002.99
2022-05-16 21:05:00,,0822.3,5.01,0.00,29.0,26.6,00.0,38.0,30.7,15.3,0000.0,0004.77,0021.63,0002.98
2022-05-16 21:06:00,,0822.3,5.00,0.00,29.0,27.0,00.0,38.0,30.8,15.1,0000.0,0004.80,0021.47,0003.00
2022-05-16 21:07:00,,0822.3,5.00,0.00,29.0,27.3,00.0,38.0,30.8,15.3,0000.0,0004.86,0020.15,0002.99
2022-05-16 21:08:00,,0822.4,5.00,0.00,29.1,27.6,00.0,38.0,30.9,16.0,0000.0,0004.87,0018.77,0003.00
2022-05-16 21:09:00,,0822.3,5.00,0.00,29.1,27.8,00.0,38.0,31.0,15.1,0000.0,0004.89,0018.65,0002.98
2022-05-16 21:10:00,,0822.3,5.01,0.00,29.2,28.0,00.0,38.0,31.1,15.6,0000.0,0004.91,0020.89,0003.00
2022-05-16 21:11:00,,0822.3,5.00,0.00,29.2,28.2,00.0,38.1,31.2,15.9,0000.0,0004.85,0021.35,0002.99
2022-05-16 21:12:00,,0822.3,5.00,0.00,29.3,28.3,00.0,38.1,31.2,15.4,0000.0,0004.83,0022.76,0002.98
2022-05-16 21:13:00,,0822.3,5.01,0.00,29.3,28.4,00.0,38.1,31.3,15.2,0000.0,0004.79,0023.19,0002.96
2022-05-16 21:14:00,,0822.3,4.99,0.00,29.3,27.0,00.0,38.1,31.1,14.2,0000.0,0004.74,0022.84,0002.97
2022-05-16 21:15:00,,0822.2,5.01,0.00,29.2,24.9,00.0,38.1,30.6,14.3,0000.0,0004.78,0023.24,0003.00
2022-05-16 21:16:00,,0822.2,5.00,0.00,29.1,25.0,00.0,38.1,30.6,14.7,0000.0,0004.76,0023.35,0003.01
2022-05-16 21:17:00,,0822.2,4.98,0.00,29.0,25.5,00.0,38.0,30.5,15.0,0000.0,0004.75,0022.51,0003.03
2022-05-16 21:18:00,,0822.2,5.02,0.00,29.0,26.0,00.0,38.0,30.5,15.1,0000.0,0004.70,0022.00,0003.02
2022-05-16 21:19:00,,0822.1,4.99,0.00,29.0,26.4,00.0,38.0,30.6,15.1,0000.0,0004.67,0021.97,0003.01
2022-05-16 21:20:00,,0822.1,5.00,0.00,29.0,26.8,00.0,38.0,30.7,15.2,0000.0,0004.65,0022.65,0003.02
2022-05-16 21:21:00,,0822.1,5.00,0.00,29.0,27.2,00.0,38.0,30.8,14.8,0000.0,0004.59,0022.27,0002.99
2022-05-16 21:22:00,,0822.1,5.01,0.00,29.1,27.5,00.0,38.0,30.9,14.7,0000.0,0004.57,0021.48,0003.00
2022-05-16 21:23:00,,0822.1,5.01,0.00,29.1,27.7,00.0,38.0,31.0,14.7,0000.0,0004.59,0021.10,0002.99
2022-05-16 21:24:00,,0822.1,5.00,0.00,29.2,28.0,00.0,38.0,31.1,14.7,0000.0,0004.60,0020.98,0002.99
2022-05-16 21:25:00,,0822.1,5.00,0.00,29.2,28.2,00.0,38.1,31.2,14.6,0000.0,0004.59,0020.43,0002.97
2022-05-16 21:26:00,,0822.1,5.01,0.00,29.3,28.3,00.0,38.1,31.2,15.0,0000.0,0004.57,0020.68,0002.95
2022-05-16 21:27:00,,0822.1,4.99,0.00,29.3,28.3,00.0,38.1,31.3,15.5,0000.0,0004.57,0021.28,0002.95
2022-05-16 21:28:00,,0822.1,5.00,0.00,29.3,26.6,00.0,38.1,31.0,15.4,0000.0,0004.62,0023.74,0002.92
2022-05-16 21:29:00,,0822.1,5.00,0.00,29.2,24.9,00.0,38.1,30.6,15.1,0000.0,0004.67,0025.30,0002.91
2022-05-16 21:30:00,,0822.1,5.00,0.00,29.1,25.1,00.0,38.1,30.5,15.1,0000.0,0004.66,0025.49,0002.94
2022-05-16 21:31:00,,0822.1,5.01,0.00,29.0,25.6,00.0,38.0,30.6,15.2,0000.0,0004.64,0024.56,0002.97
2022-05-16 21:32:00,,0822.1,4.99,0.00,29.0,26.0,00.0,38.0,30.6,15.3,0000.0,0004.64,0022.60,0003.01
2022-05-16 21:33:00,,0822.1,5.01,0.00,29.0,26.5,00.0,38.0,30.7,14.8,0000.0,0004.64,0021.35,0003.04
2022-05-16 21:34:00,,0822.0,5.00,0.00,29.0,26.9,00.0,38.0,30.7,14.7,0000.0,0004.63,0020.26,0003.06
2022-05-16 21:35:00,,0822.1,4.99,0.00,29.0,27.2,00.0,38.0,30.8,15.0,0000.0,0004.62,0019.29,0003.08
2022-05-16 21:36:00,,0822.1,5.02,0.00,29.1,27.5,00.0,38.0,30.9,15.0,0000.0,0004.60,0019.26,0003.05
2022-05-16 21:37:00,,0822.1,5.01,0.00,29.1,27.8,00.0,38.0,31.0,15.4,0000.0,0004.52,0019.02,0003.03
2022-05-16 21:38:00,,0822.0,4.98,0.00,29.2,28.0,00.0,38.1,31.1,14.7,0000.0,0004.49,0017.91,0003.01
2022-05-16 21:39:00,,0822.0,5.01,0.00,29.2,28.2,00.0,38.1,31.2,13.9,0000.0,0004.42,0015.55,0002.96
2022-05-16 21:40:00,,0822.0,5.00,0.00,29.3,28.3,00.0,38.1,31.2,14.1,0000.0,0004.28,0014.16,0002.90
2022-05-16 21:41:00,,0822.0,4.99,0.00,29.3,27.3,00.0,38.1,31.1,13.9,0000.0,0004.23,0013.48,0002.82
2022-05-16 21:42:00,,0821.9,5.00,0.00,29.2,25.1,00.0,38.1,30.7,14.0,0000.0,0004.21,0013.80,0002.75
2022-05-16 21:43:00,,0821.9,4.99,0.00,29.1,24.9,00.0,38.0,30.5,14.3,0000.0,0004.19,0015.05,0002.69
2022-05-16 21:44:00,,0821.8,5.00,0.00,29.0,25.4,00.0,38.0,30.5,14.2,0000.0,0004.18,0015.73,0002.64
2022-05-16 21:45:00,,0821.8,5.00,0.00,28.9,25.9,00.0,38.0,30.5,14.3,0000.0,0004.14,0015.24,0002.58
2022-05-16 21:46:00,,0821.9,5.01,0.00,28.9,26.3,00.0,38.0,30.6,14.2,0000.0,0004.18,0015.37,0002.54
2022-05-16 21:47:00,,0821.9,5.00,0.00,29.0,26.8,00.0,38.0,30.7,13.9,0000.0,0004.16,0016.31,0002.51
2022-05-16 21:48:00,,0821.9,5.00,0.00,29.0,27.1,00.0,38.0,30.8,13.9,0000.0,0004.21,0016.39,0002.52
2022-05-16 21:49:00,,0821.9,5.00,0.00,29.0,27.4,00.0,38.0,30.9,14.0,0000.0,0004.15,0017.18,0002.49
2022-05-16 21:50:00,,0822.0,4.99,0.00,29.1,27.7,00.0,38.0,31.0,13.9,0000.0,0004.06,0016.84,0002.51
2022-05-16 21:51:00,,0822.0,5.00,0.00,29.1,27.9,00.0,38.0,31.1,14.2,0000.0,0004.04,0017.27,0002.52
2022-05-16 21:52:00,,0822.0,5.00,0.00,29.2,28.1,00.0,38.1,31.2,13.9,0000.0,0004.02,0019.15,0002.52
2022-05-16 21:53:00,,0822.0,4.99,0.00,29.2,28.3,00.0,38.1,31.2,14.2,0000.0,0003.99,0019.57,0002.54
2022-05-16 21:54:00,,0822.0,5.01,0.00,29.3,28.0,00.0,38.1,31.2,13.6,0000.0,0004.01,0018.82,0002.54
2022-05-16 21:55:00,,0821.9,5.00,0.00,29.2,25.8,00.0,38.1,30.8,13.7,0000.0,0004.03,0018.64,0002.55
2022-05-16 21:56:00,,0821.8,5.01,0.00,29.1,24.8,00.0,38.0,30.5,13.8,0000.0,0004.03,0018.84,0002.59
2022-05-16 21:57:00,,0822.0,4.98,0.00,29.0,25.3,00.0,38.0,30.5,13.9,0000.0,0004.00,0018.61,0002.61
2022-05-16 21:58:00,,0821.8,5.00,0.00,29.0,25.7,00.0,38.0,30.5,14.5,0000.0,0004.04,0017.87,0002.65
2022-05-16 21:59:00,,0822.0,5.00,0.00,28.9,26.2,00.0,38.0,30.6,14.4,0000.0,0004.03,0017.63,0002.66
